This demonstration page uses our WeatherBlox Daily Observations layout. Learn more.

Left ArrowRight Arrow

Hourly Observations for June 10, 2017

Temp ( °F °C ) Dew Point ( °F °C ) Humidity (%) Winds ( mph kmh ) Pressure ( in mb ) Visibility ( mi km ) Precip ( " mm )
12:07 am 00:07 Clear 70 21 52 11 53 53 S 6 9 29.91 1013 10 16 N/A
12:27 am 00:27 Clear 68 20 52 11 56 56 S 7 11 29.94 1014 10 16 N/A
12:46 am 00:46 Clear 68 20 54 12 60 60 SSW 8 13 29.94 1014 10 16 N/A
1:07 am 01:07 Clear 68 20 54 12 60 60 SSW 8 13 29.94 1014 10 16 N/A
1:26 am 01:26 Clear 68 20 54 12 60 60 SSW 7 11 29.94 1014 10 16 N/A
1:47 am 01:47 Clear 68 20 54 12 60 60 SSW 7 11 29.94 1014 10 16 N/A
2:07 am 02:07 Clear 66 19 52 11 60 60 S 7 11 29.94 1014 10 16 N/A
2:26 am 02:26 Clear 66 19 52 11 60 60 S 7 11 29.94 1014 10 16 N/A
2:47 am 02:47 Clear 66 19 52 11 60 60 S 5 7 29.94 1014 10 16 N/A
3:06 am 03:06 Clear 64 18 52 11 64 64 SSW 6 9 29.94 1014 10 16 N/A
3:26 am 03:26 Clear 64 18 52 11 64 64 S 5 7 29.94 1014 10 16 N/A
3:47 am 03:47 Clear 63 17 52 11 68 68 S 5 7 29.94 1014 10 16 N/A
4:06 am 04:06 Clear 63 17 52 11 68 68 S 5 7 29.94 1014 10 16 N/A
4:27 am 04:27 Clear 61 16 52 11 72 72 S 5 7 29.94 1014 10 16 N/A
4:46 am 04:46 Clear 61 16 52 11 72 72 S 3 6 29.94 1014 10 16 N/A
5:06 am 05:06 Clear 59 15 52 11 77 77 S 3 6 29.97 1015 10 16 N/A
5:26 am 05:26 Clear 61 16 52 11 72 72 N N/A 29.97 1015 10 16 N/A
5:47 am 05:47 Clear 61 16 52 11 72 72 N N/A 29.97 1015 10 16 N/A
6:07 am 06:07 Clear 61 16 54 12 77 77 S 7 11 29.97 1015 10 16 N/A
6:26 am 06:26 Sunny 61 16 54 12 77 77 S 8 13 29.97 1015 10 16 N/A
6:47 am 06:47 Sunny 61 16 54 12 77 77 S 8 13 29.97 1015 10 16 N/A
7:06 am 07:06 Sunny 61 16 54 12 77 77 S 8 13 29.97 1015 10 16 N/A
7:27 am 07:27 Sunny 63 17 54 12 73 73 S 8 13 30.00 1016 10 16 N/A
7:47 am 07:47 Sunny 63 17 54 12 73 73 S 8 13 30.00 1016 10 16 N/A
8:06 am 08:06 Sunny 64 18 54 12 68 68 S 7 11 30.00 1016 10 16 N/A
8:27 am 08:27 Sunny 66 19 55 13 68 68 SSW 8 13 30.00 1016 10 16 N/A
8:46 am 08:46 Sunny 68 20 55 13 64 64 SSW 8 13 30.00 1016 10 16 N/A
9:06 am 09:06 Sunny 70 21 55 13 60 60 SW 9 15 30.00 1016 10 16 N/A
9:27 am 09:27 Sunny 72 22 55 13 57 57 SW 9 15 30.00 1016 10 16 N/A
9:46 am 09:46 Sunny 73 23 55 13 53 53 SSW 9 15 30.00 1016 10 16 N/A
10:07 am 10:07 Sunny 75 24 55 13 50 50 SW 14 22 30.00 1016 10 16 N/A
10:26 am 10:26 Sunny 77 25 55 13 47 47 SW 12 19 30.00 1016 10 16 N/A
10:47 am 10:47 Sunny 77 25 54 12 44 44 SW 13 20 30.00 1016 10 16 N/A
11:07 am 11:07 Sunny 79 26 54 12 42 42 WSW 13 20 30.00 1016 10 16 N/A
11:26 am 11:26 Sunny 79 26 54 12 42 42 WSW 12 19 30.00 1016 10 16 N/A
11:47 am 11:47 Sunny 81 27 54 12 39 39 SW 15 24 30.00 1016 10 16 N/A
12:06 pm 12:06 Sunny 81 27 52 11 37 37 SW 15 24 30.00 1016 10 16 N/A
12:26 pm 12:26 Sunny 82 28 54 12 37 37 WSW 17 28 30.00 1016 10 16 N/A
12:47 pm 12:47 Sunny 82 28 52 11 35 35 WSW 15 24 30.00 1016 10 16 N/A
1:06 pm 13:06 Sunny 82 28 54 12 37 37 SW 12 19 30.00 1016 10 16 N/A
1:27 pm 13:27 Sunny 82 28 52 11 35 35 SW 16 26 29.97 1015 10 16 N/A
1:46 pm 13:46 Sunny 82 28 52 11 35 35 SSW 13 20 29.97 1015 10 16 N/A
2:07 pm 14:07 Sunny 82 28 52 11 35 35 SSW 16 26 29.97 1015 10 16 N/A
2:26 pm 14:26 Sunny 84 29 52 11 33 33 WSW 14 22 29.97 1015 10 16 N/A
2:46 pm 14:46 Sunny 84 29 52 11 33 33 SW 15 24 29.97 1015 10 16 N/A
3:07 pm 15:07 Sunny 84 29 54 12 35 35 SW 10 17 29.97 1015 10 16 N/A
3:26 pm 15:26 Sunny 86 30 52 11 31 31 SSW 16 26 29.97 1015 10 16 N/A
3:47 pm 15:47 Sunny 84 29 52 11 33 33 SW 15 24 29.97 1015 10 16 N/A
4:07 pm 16:07 Sunny 86 30 52 11 31 31 SSW 16 26 29.97 1015 10 16 N/A
4:26 pm 16:26 Sunny 84 29 50 10 31 31 SSW 15 24 29.94 1014 10 16 N/A
4:47 pm 16:47 Sunny 86 30 52 11 31 31 SSW 14 22 29.94 1014 10 16 N/A
5:06 pm 17:06 Sunny 86 30 50 10 29 29 SW 16 26 29.94 1014 10 16 N/A
5:26 pm 17:26 Sunny 86 30 52 11 31 31 SSW 15 24 29.94 1014 10 16 N/A
5:47 pm 17:47 Sunny 84 29 54 12 35 35 SSW 14 22 29.94 1014 10 16 N/A
6:06 pm 18:06 Sunny 84 29 52 11 33 33 SW 18 30 29.94 1014 10 16 N/A
6:27 pm 18:27 Sunny 84 29 52 11 33 33 SW 17 28 29.91 1013 10 16 N/A
6:46 pm 18:46 Sunny 84 29 52 11 33 33 SW 16 26 29.91 1013 10 16 N/A
7:07 pm 19:07 Sunny 84 29 52 11 33 33 SW 16 26 29.91 1013 10 16 N/A
7:26 pm 19:26 Sunny 84 29 52 11 33 33 SSW 15 24 29.91 1013 10 16 N/A
7:46 pm 19:46 Sunny 82 28 54 12 37 37 SSW 12 19 29.91 1013 10 16 N/A
8:07 pm 20:07 Sunny 82 28 54 12 37 37 SW 16 26 29.91 1013 10 16 N/A
8:26 pm 20:26 Sunny 81 27 54 12 39 39 SSW 17 28 29.91 1013 10 16 N/A
8:47 pm 20:47 Sunny 81 27 54 12 39 39 SSW 16 26 29.94 1014 10 16 N/A
9:06 pm 21:06 Sunny 79 26 54 12 42 42 SSW 9 15 29.94 1014 10 16 N/A
9:27 pm 21:27 Clear 77 25 54 12 44 44 SSW 9 15 29.94 1014 10 16 N/A
9:46 pm 21:46 Clear 77 25 54 12 44 44 SSW 9 15 29.94 1014 10 16 N/A
10:06 pm 22:06 Clear 75 24 54 12 47 47 SSW 9 15 29.94 1014 10 16 N/A
10:27 pm 22:27 Clear 75 24 55 13 50 50 S 8 13 29.94 1014 10 16 N/A
10:46 pm 22:46 Clear 73 23 55 13 53 53 S 9 15 29.97 1015 10 16 N/A
11:07 pm 23:07 Clear 73 23 55 13 53 53 S 9 15 29.97 1015 10 16 N/A
11:26 pm 23:26 Clear 73 23 57 14 57 57 S 8 13 29.97 1015 10 16 N/A
11:46 pm 23:46 Clear 73 23 57 14 57 57 SSW 10 17 29.97 1015 10 16 N/A

Powered by AerisWeather